Regional Weather Roundup
Issued by NWS

Home | Current Version | Previous Version | Text Only | Print | Product List | Glossary Off
Versions: 1 2 3 4 5 6 7 8 9 10 11 12 13 14 15 16 17 18 19 20 21 22 23 24 25 26 27

000
ASUS45 KBOU 200407
RWRCO

WEATHER ROUNDUP FOR COLORADO
NATIONAL WEATHER SERVICE DENVER/BOULDER CO
1000 PM MDT TUE SEP 19 2017

NOTE: "FAIR" INDICATES FEW OR NO CLOUDS BELOW 12000 FEET WITH NO
SIGNIFICANT WEATHER AND/OR OBSTRUCTIONS TO VISIBILITY.

COZ001>005-013-030-031-200500-
...NORTHWEST COLORADO...

CITY           SKY/WX    TMP DP  RH WIND       PRES   REMARKS
CRAIG          CLOUDY    41  37  86 SE6       30.04R
HAYDEN         LGT RAIN  38  36  92 CALM      30.07R
MEEKER         MOCLDY    43  36  76 NE14      29.99S
RABBIT EARS PA SNOW      30  28  93 NW10G16   30.09R VSB 1/2 WCI  21
STEAMBOAT SPGS CLOUDY    37  35  93 W6        30.06R
WALDEN         CLOUDY    34  32  93 N7        30.06F WCI  28
$$

COZ006>008-011-200500-
...WEST CENTRAL VALLEYS...

CITY           SKY/WX    TMP DP  RH WIND       PRES   REMARKS
GRAND JUNCTION FAIR      67  39  35 W10G21    29.79R
MONTROSE       FAIR      60  30  32 SE10      29.90R
EAGLE          CLOUDY    64  29  26 W9        29.89R
RIFLE          FAIR      57  36  45 W12       29.87R
DELTA          FAIR      71  28  20 SW5       29.83S
NUCLA          FAIR      64  27  24 SW6       29.94R
$$

COZ017>023-064>068-200500-
...SOUTHWEST COLORADO...

CITY           SKY/WX    TMP DP  RH WIND       PRES   REMARKS
DURANGO        FAIR      58  24  27 CALM      30.00R
CORTEZ         FAIR      67  22  18 SW14      29.95R
PAGOSA SPRINGS FAIR      50  29  44 CALM      30.07S
TELLURIDE      FAIR      55  22  28 CALM      30.14S
WOLF CREEK PAS FAIR      41  18  38 SW24G35   30.32R
$$

COZ009-010-012-014-032>034-037-058>063-200500-
...CENTRAL COLORADO...

CITY           SKY/WX    TMP DP  RH WIND       PRES   REMARKS
ASPEN          FAIR      64  21  19 SW9G30    29.94S
BUENA VISTA    FAIR      62  16  17 W13G28    29.97R
COPPER MTN     MOCLDY    45  14  29 SW10G17   30.19S
BERTHOUD PASS  FAIR      36  28  75 W25G39    30.17F
COTTONWOOD PAS FAIR      55  12  18 W29G39    30.05S
GUNNISON       FAIR      58  25  28 E3        30.00R
KREMMLING      MOCLDY    50  34  53 CALM      30.00R
LEADVILLE      FAIR      49  17  28 S16G23    30.06S
MONARCH PASS   FAIR      41  16  36 W38G45    30.31R
SALIDA         FAIR      59  18  20 S8        30.03R
SUNLIGHT       CLOUDY    45  27  49 SW13G28   30.14S
WILKERSON PASS FAIR      45  16  31 SW21G36   30.14F
$$

COZ069>075-200500-
...SAN LUIS VALLEY/SANGRE DE CRISTO MOUNTAINS...

CITY           SKY/WX    TMP DP  RH WIND       PRES   REMARKS
ALAMOSA        FAIR      49  24  37 S13       30.01R
DEL NORTE      FAIR      55  20  25 W10       30.03R
LA VETA PASS   FAIR      52  18  25 S31G46    30.23S
SAGUACHE       FAIR      45  28  53 N7        30.01R
$$

COZ035-036-038>040-200500-
...NORTHERN COLORADO FRONT RANGE...

CITY           SKY/WX    TMP DP  RH WIND       PRES   REMARKS
DENVER INTL AP FAIR      47  28  47 SE13      29.85R
DMNS CITY PARK   N/A     52  31  44 E5G21     29.84F
AURORA         CLEAR     47  30  52 SE12      29.87F
FRONT RANGE AP FAIR      50  32  50 SE10      29.88S
ERIE MUNI ARPT FAIR      55  29  38 SE14G24   29.87S
BOULDER MUN AP FAIR      55  32  41 SE8       29.82S
CENTENNIAL     FAIR      50  32  50 SE12      29.88S
BROOMFIELD     PTCLDY   N/A N/A N/A SE12G21   29.84S
FORT COLLINS   FAIR      53  33  46 S7        29.83R
LONGMONT       FAIR      56  32  39 S10       29.83R
$$

COZ041-046-047-076>085-087-088-200500-
...PIKES PEAK/PALMER DIVIDE AND SOUTHERN FOOTHILLS...

CITY           SKY/WX    TMP DP  RH WIND       PRES   REMARKS
COLO. SPRINGS  FAIR      55  33  43 CALM      29.87R
A. F. ACADEMY  FAIR      51  31  47 N10       29.88S
SCHRIEVER AFB  FAIR      51  31  46 MISG      29.88R
CHEYENNE MTN   NOT AVBL
ELLICOTT         N/A    N/A N/A N/A NE22G30   29.85R
FALCON         FAIR      47  31  52 N16G22    29.91R
FORT CARSON    FAIR      55  34  44 NE10      29.84R
LIMON          FAIR      48  31  51 N13       29.88R
MONUMENT HILL  FAIR      41  32  70 CALM      29.96S
CANON CITY     CLEAR     73  23  15 W5        29.78S
WALSENBURG     FAIR      70  19  14 SW10      29.86R
TRINIDAD       FAIR      70  21  15 W24G35    29.82F
$$

COZ042>045-048>051-090-091-200500-
...NORTHEAST COLORADO...

CITY           SKY/WX    TMP DP  RH WIND       PRES   REMARKS
GREELEY ARPT   FAIR      54  33  45 NW23G31   29.78R
AKRON          FAIR      50  28  42 N22G31    29.82R
BURLINGTON     FAIR      59  36  42 N16G26    29.80R
WRAY           FAIR      57  32  38 N21G32    29.78R
YUMA           FAIR      52  27  37 N20G28    29.81R
STERLING       FAIR      54  32  43 NW28G37   29.77R
HOLYOKE        FAIR      59  32  36 NW22G32   29.77S
FORT MORGAN    FAIR      52  30  42 N24G33    29.81R
$$

COZ086-089-092>099-200500-
...SOUTHEAST COLORADO...

CITY           SKY/WX    TMP DP  RH WIND       PRES   REMARKS
PUEBLO         FAIR      64  34  32 N24G37    29.76R
LA JUNTA       FAIR      80  21  11 W18G29    29.69R
LAMAR          FAIR      67  30  25 SW12      29.64R
SPRINGFIELD    NOT AVBL
$$




USA.gov is the U.S. government's official web portal to all federal, state and local government web resources and services.